Change the Weather History Date:

Friday, March 7, 2014

  Actual Average Record
Temperature  
Mean Temperature 37 °F -  
Max Temperature 53 °F 46 °F 69 °F (2015)
Min Temperature 21 °F 26 °F 6 °F (1956)
Degree Days  
Heating Degree Days 28    
Moisture  
Dew Point 28 °F    
Average Humidity 69    
Maximum Humidity 100    
Minimum Humidity 41    
Precipitation  
Precipitation 0.00 in - - ()
Sea Level Pressure  
Sea Level Pressure 30.24 in    
Wind  
Wind Speed 5 mph (West)    
Max Wind Speed 9 mph    
Max Gust Speed -    
Visibility 10 miles    
Events      
Averages and records for this station are not official NWS values.
T = Trace of Precipitation, MM = Missing Value Source: NWS Daily Summary

Daily Weather History Graph

Daily Weather History Graph

Search for Another Location

Airport or City:

Trip Planner

Search our weather history database for the weather conditions in past years. The results will help you decide how hot, cold, wet, or windy it might be!

Date:

Astronomy

Mar. 07, 2014 Rise Set
Actual Time 6:26 AM PST 5:58 PM PST
Civil Twilight 5:58 AM PST 6:26 PM PST
Nautical Twilight 5:26 AM PST 6:59 PM PST
Astronomical Twilight 4:53 AM PST 7:31 PM PST
Moon 10:17 AM PST (3/7) 12:14 AM PST (3/7)
Length of Visible Light 12h 28m
Length of Day
11h 32m
Waxing Crescent, 43% of the Moon is Illuminated
Mar 7
Waxing Crescent
Mar 8
First Quarter
Mar 16
Full
Mar 23
Last Quarter
Mar 30
New

Hourly Weather History & Observations

Time (PST) Temp. Windchill Dew Point Humidity Pressure Visibility Wind Dir Wind Speed Gust Speed Precip Events Conditions
12:15 AM 33.8 °F 27.7 °F 30.2 °F 87% 30.19 in 10.0 mi South 6.9 mph - N/A   Overcast
12:35 AM - - - N/A% 30.20 in 10.0 mi ESE 5.8 mph - N/A   Scattered Clouds
12:55 AM - - - N/A% 30.20 in 10.0 mi South 3.5 mph - N/A   Clear
1:15 AM - - - N/A% 30.21 in 10.0 mi SW 3.5 mph - N/A   Clear
1:35 AM 28.4 °F - 26.6 °F 93% 30.21 in 10.0 mi Calm Calm - N/A   Clear
1:55 AM - - - N/A% 30.20 in 10.0 mi East 5.8 mph - N/A   Clear
2:15 AM - - - N/A% 30.19 in 10.0 mi SE 5.8 mph - N/A   Clear
2:35 AM - - - N/A% 30.19 in 10.0 mi SSE 5.8 mph - N/A   Clear
2:55 AM - - - N/A% 30.18 in 10.0 mi ESE 5.8 mph - N/A   Clear
3:15 AM - - - N/A% 30.19 in 10.0 mi SSE 4.6 mph - N/A   Clear
3:35 AM - - - N/A% 30.21 in 10.0 mi NW 5.8 mph - N/A   Clear
3:55 AM - - - N/A% 30.22 in 10.0 mi West 4.6 mph - N/A   Clear
4:15 AM - - - N/A% 30.22 in 10.0 mi NE 8.1 mph - N/A   Clear
4:35 AM - - - N/A% 30.22 in 10.0 mi ENE 6.9 mph - N/A   Clear
4:55 AM - - - N/A% 30.22 in 10.0 mi NE 3.5 mph - N/A   Clear
5:15 AM - - - N/A% 30.23 in 10.0 mi NW 5.8 mph - N/A   Clear
5:35 AM - - - N/A% 30.22 in 10.0 mi NNW 5.8 mph - N/A   Clear
5:55 AM 21.2 °F 12.6 °F 19.4 °F 93% 30.23 in 10.0 mi NNE 6.9 mph - N/A   Clear
6:15 AM 21.2 °F - 19.4 °F 93% 30.23 in 10.0 mi Calm Calm - N/A   Clear
6:35 AM 21.2 °F 16.4 °F 19.4 °F 93% 30.24 in 10.0 mi WNW 3.5 mph - N/A   Clear
6:55 AM 23.0 °F 17.0 °F 19.4 °F 86% 30.24 in 10.0 mi NNW 4.6 mph - N/A   Clear
7:15 AM 23.0 °F - 21.2 °F 93% 30.24 in 10.0 mi Calm Calm - N/A   Clear
7:35 AM 28.4 °F - 28.4 °F 100% 30.24 in 10.0 mi Calm Calm - N/A   Clear
7:55 AM 33.8 °F 30.8 °F 30.2 °F 87% 30.25 in 10.0 mi WNW 3.5 mph - N/A   Clear
8:15 AM 35.6 °F 29.9 °F 30.2 °F 81% 30.25 in 10.0 mi WNW 6.9 mph - N/A   Clear
8:35 AM 35.6 °F 32.8 °F 30.2 °F 81% 30.25 in 10.0 mi NNW 3.5 mph - N/A   Clear
8:55 AM - - - N/A% 30.25 in 10.0 mi NNW 3.5 mph - N/A   Partly Cloudy
9:15 AM 39.2 °F 37.0 °F 30.2 °F 70% 30.26 in 10.0 mi NNW 3.5 mph - N/A   Partly Cloudy
9:35 AM 41.0 °F 39.0 °F 32.0 °F 70% 30.27 in 10.0 mi West 3.5 mph - N/A   Partly Cloudy
9:55 AM 42.8 °F 41.1 °F 33.8 °F 70% 30.27 in 10.0 mi SW 3.5 mph - N/A   Partly Cloudy
10:15 AM 44.6 °F 42.2 °F 32.0 °F 61% 30.28 in 10.0 mi WSW 4.6 mph - N/A   Clear
10:35 AM 44.6 °F - 30.2 °F 57% 30.29 in 10.0 mi Calm Calm - N/A   Clear
10:55 AM 44.6 °F 43.1 °F 32.0 °F 61% 30.29 in 10.0 mi SE 3.5 mph - N/A   Clear
11:15 AM 46.4 °F 44.3 °F 32.0 °F 57% 30.29 in 10.0 mi SSW 4.6 mph - N/A   Clear
11:35 AM 46.4 °F 43.5 °F 32.0 °F 57% 30.29 in 10.0 mi South 5.8 mph - N/A   Clear
11:55 AM 46.4 °F 44.3 °F 28.4 °F 50% 30.29 in 10.0 mi SSE 4.6 mph - N/A   Clear
12:15 PM 46.4 °F 42.9 °F 30.2 °F 53% 30.28 in 10.0 mi ESE 6.9 mph - N/A   Clear
12:35 PM 46.4 °F 45.2 °F 28.4 °F 50% 30.28 in 10.0 mi SSE 3.5 mph - N/A   Clear
12:55 PM 48.2 °F - 28.4 °F 46% 30.27 in 10.0 mi SSE 3.5 mph - N/A   Clear
1:15 PM 48.2 °F - 26.6 °F 43% 30.26 in 10.0 mi ENE 3.5 mph - N/A   Clear
1:35 PM 48.2 °F - 28.4 °F 46% 30.24 in 10.0 mi Calm Calm - N/A   Clear
1:55 PM 50.0 °F - 28.4 °F 43% 30.24 in 10.0 mi Calm Calm - N/A   Clear
2:15 PM 51.8 °F - 28.4 °F 41% 30.23 in 10.0 mi South 4.6 mph - N/A   Clear
2:35 PM 51.8 °F - 30.2 °F 44% 30.23 in 10.0 mi SW 5.8 mph - N/A   Clear
2:55 PM 51.8 °F - 30.2 °F 44% 30.23 in 10.0 mi South 8.1 mph - N/A   Clear
3:15 PM 51.8 °F - 30.2 °F 44% 30.23 in 10.0 mi Calm Calm - N/A   Clear
3:35 PM 51.8 °F - 32.0 °F 47% 30.23 in 10.0 mi SW 5.8 mph - N/A   Clear
3:55 PM 51.8 °F - 32.0 °F 47% 30.23 in 10.0 mi SW 5.8 mph - N/A   Clear
4:15 PM 53.6 °F - 30.2 °F 41% 30.24 in 10.0 mi SSW 6.9 mph - N/A   Clear
4:35 PM 51.8 °F - 30.2 °F 44% 30.23 in 10.0 mi Calm Calm - N/A   Clear
4:55 PM 51.8 °F - 30.2 °F 44% 30.23 in 10.0 mi South 3.5 mph - N/A   Clear
5:15 PM 50.0 °F - 30.2 °F 47% 30.23 in 10.0 mi Calm Calm - N/A   Clear
5:35 PM 48.2 °F - 30.2 °F 50% 30.22 in 10.0 mi SSW 6.9 mph - N/A   Clear
5:55 PM 46.4 °F 44.3 °F 33.8 °F 62% 30.22 in 10.0 mi SSW 4.6 mph - N/A   Clear
6:15 PM 44.6 °F 42.2 °F 32.0 °F 61% 30.24 in 10.0 mi SSW 4.6 mph - N/A   Clear
6:35 PM 42.8 °F - 32.0 °F 66% 30.24 in 10.0 mi Calm Calm - N/A   Clear
6:55 PM 39.2 °F 37.0 °F 30.2 °F 70% 30.25 in 10.0 mi East 3.5 mph - N/A   Clear
7:15 PM 35.6 °F 30.7 °F 30.2 °F 81% 30.25 in 10.0 mi NE 5.8 mph - N/A   Clear
7:35 PM 35.6 °F - 30.2 °F 81% 30.26 in 10.0 mi Calm Calm - N/A   Clear
7:55 PM 33.8 °F 30.8 °F 30.2 °F 87% 30.25 in 10.0 mi NW 3.5 mph - N/A   Clear
8:15 PM 33.8 °F 29.6 °F 28.4 °F 81% 30.25 in 10.0 mi NW 4.6 mph - N/A   Clear
8:35 PM 32.0 °F 27.5 °F 28.4 °F 87% 30.26 in 10.0 mi WNW 4.6 mph - N/A   Clear
8:55 PM 30.2 °F 24.3 °F 26.6 °F 86% 30.26 in 10.0 mi NNW 5.8 mph - N/A   Clear
9:15 PM 28.4 °F 22.2 °F 26.6 °F 93% 30.26 in 10.0 mi NW 5.8 mph - N/A   Clear
9:35 PM 28.4 °F 19.7 °F 26.6 °F 93% 30.25 in 10.0 mi NNW 9.2 mph - N/A   Clear
9:55 PM 28.4 °F 20.4 °F 26.6 °F 93% 30.25 in 10.0 mi NW 8.1 mph - N/A   Clear
10:15 PM 28.4 °F 21.2 °F 24.8 °F 86% 30.26 in 10.0 mi NW 6.9 mph - N/A   Clear
10:35 PM 28.4 °F 21.2 °F 24.8 °F 86% 30.25 in 10.0 mi NNW 6.9 mph - N/A   Clear
10:55 PM 28.4 °F 19.7 °F 24.8 °F 86% 30.25 in 10.0 mi North 9.2 mph - N/A   Clear
11:15 PM 28.4 °F 23.3 °F 24.8 °F 86% 30.25 in 10.0 mi North 4.6 mph - N/A   Clear
11:35 PM 26.6 °F 22.6 °F 24.8 °F 93% 30.25 in 10.0 mi North 3.5 mph - N/A   Clear
11:55 PM 24.8 °F - 21.2 °F 86% 30.25 in 10.0 mi Calm Calm - N/A   Clear